Flag for Switzerland Weather past 2 weeks in Lugano, Switzerland

Now
55 °F

Clear.


Feels Like: 55 °F
Forecast: 39 / 65 °F
Wind: 2 mph from North

Location: Lugano Airport

Current Time: Mar 29, 2015 at 9:56:06 PM

Latest Report: Mar 29, 2015 at 9:20 PM


Visibility: 10 mi

Pressure: 29.77 "Hg

Humidity: 59%

Dew point: 41 °F

Location of LuganoLocation

Historic Weather in Lugano — Graph

°F

Lugano temperature yesterday

Maximum temperature yesterday: 66 °F (at 1:50 PM)
Minimum temperature yesterday: 39 °F (at 6:20 AM)
Average temperature yesterday: 55 °F

Past Weeks' High & Low Weather Summary

 TemperatureHumidityPressure
High66 °F (Mar 28, 1:50 PM)100% (Mar 16, 4:20 AM)30.39 "Hg (Mar 16, 4:20 AM)
Low34 °F (Mar 18, 5:50 AM)19% (Mar 27, 1:20 PM)29.50 "Hg (Mar 25, 5:50 PM)
Average49 °F75%30.04 "Hg
* Reported Mar 14 7:20 PM — Mar 29 8:20 PM, Lugano, Weather by CustomWeather, © 2015

Note: Actual official high and low records may vary slightly from our data, if they occured in-between our weather recording intervals... More about our weather records

Advertising

Lugano weather history for previous 24 hours

 ConditionsComfort  
Time TempWeatherWind HumidityBarometerVisibility
8:20 PM
Sun, Mar 29
57 °FPartly sunny.1 mph55%29.77 "HgN/A
7:50 PM59 °FPartly sunny.2 mph48%29.77 "HgN/A
7:20 PM59 °FPartly sunny.2 mph48%29.77 "HgN/A
6:50 PM61 °FScattered clouds.3 mph45%29.77 "HgN/A
6:20 PM61 °FPassing clouds.6 mph45%29.77 "HgN/A
5:50 PM64 °FScattered clouds.7 mph37%29.77 "HgN/A
5:20 PM64 °FScattered clouds.8 mph37%29.77 "HgN/A
4:50 PM64 °FScattered clouds.8 mph40%29.80 "HgN/A
4:20 PM64 °FScattered clouds.7 mph37%29.80 "HgN/A
3:50 PM63 °FPartly sunny.8 mph42%29.80 "HgN/A
3:20 PM63 °FPartly sunny.7 mph45%29.83 "HgN/A
2:50 PM63 °FPartly sunny.7 mph42%29.83 "HgN/A
2:20 PM63 °FPartly sunny.6 mph39%29.83 "HgN/A
1:50 PM63 °FPartly sunny.3 mph39%29.86 "HgN/A
1:20 PM63 °FScattered clouds.5 mph39%29.86 "HgN/A
12:50 PM63 °FPassing clouds.5 mph39%29.89 "HgN/A
12:20 PM61 °FSunny.5 mph42%29.89 "Hg10 mi
11:50 AM61 °FSunny.1 mph45%29.92 "Hg10 mi
11:20 AM57 °FSunny.1 mph51%29.92 "Hg10 mi
10:50 AM57 °FSunny.1 mph51%29.92 "Hg10 mi
10:20 AM52 °FSunny.2 mph58%29.92 "Hg10 mi
9:50 AM50 °FSunny.3 mph67%29.92 "Hg10 mi
9:20 AM48 °FSunny.2 mph66%29.95 "Hg10 mi
8:50 AM43 °FSunny.1 mph81%29.95 "Hg10 mi
8:20 AM39 °FPassing clouds.5 mph87%29.95 "HgN/A
7:50 AM39 °FClear.2 mph87%29.92 "Hg10 mi
7:20 AM39 °FClear.3 mph81%29.92 "Hg10 mi
6:50 AM39 °FClear.1 mph87%29.95 "Hg10 mi
6:20 AM41 °FClear.2 mph81%29.95 "Hg10 mi
5:20 AM41 °FClear.2 mph87%29.95 "Hg10 mi
4:50 AM41 °FClear.2 mph81%29.92 "Hg10 mi
4:20 AM43 °FClear.2 mph76%29.92 "Hg10 mi
3:50 AM43 °FClear.1 mph76%29.92 "Hg10 mi
3:20 AM43 °FQuite cool.2 mph76%29.95 "HgN/A
1:50 AM45 °FClear.2 mph71%29.95 "Hg10 mi
1:20 AM45 °FClear.2 mph71%29.95 "Hg10 mi
12:50 AM46 °FClear.2 mph71%29.95 "Hg10 mi
12:20 AM46 °FClear.3 mph71%29.95 "Hg10 mi
11:50 PM
Sat, Mar 28
48 °FPassing clouds.3 mph66%29.95 "HgN/A
11:20 PM48 °FClear.2 mph66%29.95 "Hg10 mi
10:50 PM48 °FClear.2 mph66%29.95 "Hg10 mi
10:20 PM48 °FClear.2 mph66%29.95 "Hg10 mi
9:50 PM52 °FClear.1 mph54%29.95 "Hg10 mi
9:20 PM50 °FClear.2 mph62%29.95 "Hg10 mi
Weather by CustomWeather, © 2015

See weather overviewHow to use our weather pages